1508770800.48,55174,10.88,72800.3,-5.01,-6.19,-6.09,0,*57
1508770801.73,55175,10.88,72802.3,-5.01,-6.19,-6.19,0,*57
1508770802.94,55176,10.88,72806.8,-5.01,-6.23,-6.09,0,*5C
1508770804.16,55177,10.88,72804.8,-4.97,-6.05,-6.05,0,*5B
1508770805.38,55178,10.88,72802.0,-5.03,-6.09,-6.09,0,*58
1508770806.65,55179,10.88,72796.3,-4.97,-6.27,-6.23,0,*51
1508770807.89,55180,10.88,72802.0,-5.01,-6.23,-6.19,0,*54
1508770809.12,55181,10.88,72802.3,-5.01,-6.09,-6.19,0,*5D
1508770810.33,55182,10.88,72802.0,-5.03,-6.05,-6.09,0,*51
1508770811.52,55183,10.88,72802.5,-5.01,-6.05,-6.09,0,*52
1508770812.71,55184,10.88,72804.0,-5.01,-6.05,-6.09,0,*55
1508770813.9,55185,10.88,72802.5,-5.01,-6.01,-6.05,0,*5C
1508770815.08,55186,10.88,72802.3,-5.01,-6.05,-6.09,0,*57
1508770816.3,55187,10.88,72804.5,-5.03,-6.09,-6.05,0,*54
1508770817.52,55188,10.88,72798.3,-5.01,-6.19,-6.09,0,*54
1508770818.77,55189,10.88,72798.5,-5.01,-6.19,-6.19,0,*54
1508770819.99,55190,10.88,72806.0,-5.01,-6.19,-6.09,0,*5D
1508770821.21,55191,10.88,72806.8,-5.03,-6.09,-6.09,0,*5F
1508770822.46,55192,10.88,72800.8,-5.01,-6.19,-6.19,0,*5E
1508770823.65,55193,10.88,72798.8,-5.01,-6.09,-6.09,0,*5F
1508770824.9,55194,10.88,72800.0,-5.01,-6.19,-6.19,0,*58
1508770826.17,55195,10.88,72802.0,-5.03,-6.19,-6.23,0,*52
1508770827.41,55196,10.88,72802.8,-5.03,-6.23,-6.09,0,*50
1508770828.62,55197,10.88,72800.5,-5.01,-6.19,-6.09,0,*5A
1508770829.84,55198,10.88,72800.0,-4.97,-6.05,-6.05,0,*5A
1508770831.09,55199,10.88,72800.3,-5.03,-6.19,-6.09,0,*56
1508770832.3,55200,10.88,72800.3,-5.01,-6.19,-6.05,0,*5B
1508770833.55,55201,10.88,72800.0,-5.03,-6.19,-6.09,0,*54
1508770834.75,55202,10.88,72798.8,-5.01,-6.35,-6.31,0,*50
1508770835.99,55203,10.88,72800.3,-5.03,-6.19,-6.09,0,*56
1508770837.24,55204,10.88,72804.8,-5.01,-6.19,-6.19,0,*52
1508770838.46,55205,10.88,72798.8,-5.01,-6.19,-6.09,0,*52
1508770839.73,55206,10.88,72798.0,-5.03,-6.23,-6.19,0,*5B
1508770840.97,55207,10.88,72800.3,-5.03,-6.19,-6.09,0,*52
1508770842.25,55208,10.88,72796.8,-5.03,-6.19,-6.19,0,*5C
1508770843.47,55209,10.88,72800.3,-5.01,-6.19,-6.09,0,*5E
1508770844.68,55210,10.88,72794.3,-5.01,-6.19,-6.09,0,*56
1508770845.88,55211,10.88,72798.0,-5.01,-6.09,-6.09,0,*56
1508770847.13,55212,10.88,72800.3,-5.01,-6.19,-6.19,0,*55
1508770848.37,55213,10.88,72802.0,-5.03,-6.19,-6.05,0,*5B
1508770849.56,55214,10.88,72802.3,-5.01,-6.09,-6.09,0,*53
1508770850.78,55215,10.88,72806.5,-5.01,-6.19,-6.05,0,*5F
1508770851.97,55216,10.88,72798.8,-5.01,-6.09,-6.05,0,*5D
1508770853.16,55217,10.88,72802.8,-5.01,-6.05,-6.05,0,*50
1508770854.37,55218,10.88,72802.5,-5.03,-6.05,-5.97,0,*55
1508770855.57,55219,10.88,72810.8,-5.01,-6.09,-6.09,0,*5E
1508770856.75,55220,10.88,72802.0,-5.01,-6.05,-6.05,0,*54
1508770857.98,55221,10.88,72796.8,-4.97,-6.01,-6.05,0,*5F
1508770859.19,55222,10.88,72792.8,-4.97,-6.05,-6.13,0,*5F
1508770860.39,55223,10.88,72802.0,-5.01,-6.09,-6.09,0,*57
1508770861.57,55224,10.88,72802.3,-5.01,-6.05,-6.05,0,*50
1508770862.76,55225,10.88,72800.5,-5.01,-6.05,-6.05,0,*51
1508770863.95,55226,10.88,72798.8,-5.01,-5.97,-6.05,0,*5A
1508770865.14,55227,10.88,72802.8,-5.01,-6.05,-6.05,0,*53
1508770866.33,55228,10.88,72794.8,-5.01,-6.09,-6.05,0,*50
1508770867.52,55229,10.88,72798.8,-5.01,-6.09,-6.05,0,*51
1508770868.72,55230,10.88,72804.8,-5.01,-5.97,-5.97,0,*55
1508770869.9,55231,10.88,72804.8,-5.01,-6.05,-6.09,0,*58
1508770871.1,55232,10.88,72800.0,-5.01,-6.09,-6.09,0,*57
1508770872.32,55233,10.88,72796.3,-4.97,-6.13,-6.13,0,*58
1508770873.51,55234,10.88,72798.5,-5.01,-6.09,-6.09,0,*51
1508770874.73,55235,10.88,72796.0,-4.97,-6.05,-6.01,0,*5A
1508770875.98,55236,10.88,72794.0,-5.01,-6.19,-6.19,0,*53
1508770877.2,55237,10.88,72802.0,-5.01,-6.19,-6.09,0,*53
1508770878.42,55238,10.88,72796.0,-4.97,-6.05,-6.05,0,*53
1508770879.64,55239,10.88,72802.5,-4.97,-6.01,-6.01,0,*52
1508770880.86,55240,10.88,72798.3,-4.97,-6.01,-6.05,0,*58
1508770882.08,55241,10.88,72802.3,-4.97,-6.05,-6.05,0,*5D
1508770883.33,55242,10.88,72798.8,-4.97,-6.19,-6.13,0,*54
1508770884.55,55243,10.88,72798.0,-4.97,-6.13,-6.05,0,*58
1508770885.77,55244,10.88,72796.8,-4.97,-6.05,-6.13,0,*5F
1508770886.99,55245,10.88,72792.8,-4.97,-6.05,-6.13,0,*5E
1508770888.21,55246,10.88,72796.5,-4.97,-6.13,-6.05,0,*5D
1508770889.43,55247,10.88,72794.0,-4.97,-6.13,-6.05,0,*5C
1508770890.65,55248,10.88,72796.0,-4.97,-6.13,-6.13,0,*54
1508770891.87,55249,10.88,72800.5,-4.95,-6.19,-6.13,0,*5D
1508770893.14,55250,10.88,72808.8,-4.97,-6.27,-6.27,0,*5D
1508770894.39,55251,10.88,72798.5,-4.97,-6.19,-6.13,0,*56
1508770895.65,55252,10.88,72810.0,-4.97,-6.27,-6.23,0,*5B
1508770896.85,55253,10.88,72806.8,-4.95,-6.13,-6.13,0,*5C
1508770898.04,55254,10.88,72800.0,-4.95,-6.13,-6.13,0,*5B
1508770899.31,55255,10.88,72798.8,-4.97,-6.27,-6.19,0,*55
1508770900.59,55256,10.88,72798.8,-4.97,-6.19,-6.19,0,*5B
1508770901.81,55257,10.88,72810.5,-5.01,-6.23,-6.31,0,*57
1508770903.08,55258,10.88,72804.5,-4.97,-6.27,-6.27,0,*55
1508770904.33,55259,10.88,72806.0,-4.97,-6.31,-6.27,0,*53
1508770905.58,55260,10.88,72808.3,-4.97,-6.13,-6.19,0,*54
1508770906.82,55261,10.88,72808.5,-5.01,-6.19,-6.23,0,*58
1508770908.07,55262,10.88,72804.3,-4.97,-6.19,-6.13,0,*56
1508770909.31,55263,10.88,72806.3,-4.97,-6.27,-6.13,0,*5A
1508770910.59,55264,10.88,72806.3,-4.97,-6.19,-6.27,0,*57
1508770911.87,55265,10.88,72808.3,-4.97,-6.19,-6.19,0,*5B
1508770913.11,55266,10.88,72808.0,-4.97,-6.27,-6.13,0,*5F
1508770914.36,55267,10.88,72812.5,-5.01,-6.19,-6.19,0,*57
1508770915.61,55268,10.88,72810.0,-5.01,-6.23,-6.19,0,*51
1508770916.82,55269,10.88,72812.0,-5.01,-6.31,-6.23,0,*5A
1508770918.04,55270,10.88,72812.5,-5.01,-6.31,-6.23,0,*52
1508770919.26,55271,10.88,72812.5,-5.01,-6.23,-6.31,0,*53
1508770920.45,55272,10.88,72808.8,-5.01,-6.09,-6.09,0,*53
1508770921.64,55273,10.88,72814.3,-4.95,-6.13,-6.05,0,*59
1508770922.86,55274,10.88,72814.8,-4.97,-6.13,-6.05,0,*5C
1508770924.14,55275,10.88,72812.5,-4.97,-6.19,-6.19,0,*5A
1508770925.39,55276,10.88,72812.0,-4.97,-6.19,-6.13,0,*53
1508770926.61,55277,10.88,72810.0,-4.97,-6.39,-6.39,0,*58
1508770927.89,55278,10.88,72812.3,-4.97,-6.19,-6.19,0,*57
1508770929.14,55279,10.88,72812.0,-4.97,-6.19,-6.13,0,*5C
1508770930.39,55280,10.88,72810.5,-4.97,-6.19,-6.13,0,*5A
1508770931.67,55281,10.88,72812.0,-4.97,-6.19,-6.19,0,*51
1508770932.95,55282,10.88,72810.8,-4.97,-6.19,-6.19,0,*52
1508770934.23,55283,10.88,72814.8,-4.97,-6.19,-6.19,0,*53
1508770935.5,55284,10.88,72812.0,-4.97,-6.19,-6.19,0,*54
1508770936.73,55285,10.88,72816.8,-4.97,-6.13,-6.13,0,*55
1508770937.91,55286,10.81,72808.3,-4.95,-6.05,-6.05,0,*54
1508770939.16,55287,10.88,72810.5,-4.97,-6.19,-6.13,0,*5D
1508770940.41,55288,10.81,72802.0,-4.95,-6.27,-6.19,0,*57
1508770941.68,55289,10.88,72810.0,-4.97,-6.19,-6.19,0,*59
1508770942.9,55290,10.88,72808.0,-5.01,-6.31,-6.23,0,*5C
1508770944.18,55291,10.88,72812.8,-4.97,-6.19,-6.19,0,*50
1508770945.45,55292,10.88,72808.8,-4.97,-6.27,-6.19,0,*5E
1508770946.73,55293,10.88,72808.8,-4.97,-6.19,-6.27,0,*5F
1508770947.98,55294,10.88,72808.5,-4.97,-6.19,-6.13,0,*5F
1508770949.25,55295,10.88,72810.3,-4.97,-6.27,-6.19,0,*59
1508770950.53,55296,10.81,72806.8,-4.97,-6.19,-6.19,0,*57
1508770951.77,55297,10.88,72808.5,-4.95,-6.27,-6.19,0,*59
1508770953.02,55298,10.88,72814.8,-4.97,-6.19,-6.13,0,*53
1508770954.27,55299,10.88,72816.0,-4.95,-6.19,-6.19,0,*5A
1508770955.52,55300,10.88,72808.5,-4.97,-6.19,-6.13,0,*53
1508770956.77,55301,10.88,72814.5,-4.97,-6.19,-6.13,0,*52
1508770958.05,55302,10.88,72812.0,-4.97,-6.19,-6.19,0,*5B
1508770959.29,55303,10.88,72812.3,-4.97,-6.19,-6.05,0,*57
1508770960.57,55304,10.88,72814.5,-4.97,-6.19,-6.19,0,*5D
1508770961.8,55305,10.88,72816.8,-4.97,-6.13,-6.13,0,*5C
1508770963.02,55306,10.88,72818.5,-4.97,-6.13,-6.13,0,*5F
1508770964.24,55307,10.88,72818.8,-5.01,-6.09,-6.19,0,*51
1508770965.49,55308,10.88,72822.8,-5.01,-6.19,-6.19,0,*5F
1508770966.71,55309,10.88,72822.0,-4.97,-6.05,-6.05,0,*50
1508770967.9,55310,10.88,72820.0,-4.95,-6.01,-6.01,0,*5A
1508770969.09,55311,10.88,72818.0,-4.95,-6.05,-6.05,0,*5B
1508770970.31,55312,10.88,72812.0,-4.97,-6.13,-6.13,0,*5A
1508770971.55,55313,10.88,72816.0,-4.97,-6.27,-6.13,0,*5C
1508770972.8,55314,10.81,72818.3,-4.97,-6.19,-6.05,0,*51
1508770974.08,55315,10.88,72818.0,-4.97,-6.19,-6.19,0,*5D
1508770975.33,55316,10.88,72814.5,-4.97,-6.19,-6.05,0,*53
1508770976.55,55317,10.88,72820.0,-4.97,-6.05,-6.05,0,*5F
1508770977.76,55318,10.88,72818.8,-4.97,-6.05,-6.05,0,*50
1508770978.95,55319,10.88,72816.3,-4.95,-6.05,-6.01,0,*57
1508770980.17,55320,10.88,72816.5,-4.97,-6.13,-6.05,0,*5C
1508770981.36,55321,10.88,72814.0,-4.95,-6.05,-6.05,0,*58
1508770982.58,55322,10.88,72814.3,-4.97,-6.13,-6.05,0,*5E
1508770983.83,55323,10.88,72814.3,-4.97,-6.19,-6.13,0,*52
1508770985.08,55324,10.88,72812.8,-4.97,-6.19,-6.13,0,*55
1508770986.3,55325,10.88,72814.8,-4.97,-6.13,-6.13,0,*5E
1508770987.58,55326,10.88,72816.8,-4.97,-6.19,-6.27,0,*50
1508770988.83,55327,10.88,72812.5,-4.97,-6.31,-6.27,0,*5B
1508770990.1,55328,10.88,72814.5,-4.97,-6.27,-6.27,0,*53
1508770991.37,55329,10.88,72814.8,-4.97,-6.27,-6.19,0,*5F
1508770992.64,55330,10.88,72814.3,-4.97,-6.27,-6.27,0,*5A
1508770993.91,55331,10.88,72810.5,-4.97,-6.27,-6.27,0,*5B
1508770995.11,55332,10.88,72812.0,-5.01,-6.35,-6.31,0,*52
1508770996.31,55333,10.88,72812.3,-5.01,-6.31,-6.31,0,*57
1508770997.58,55334,10.88,72804.8,-4.97,-6.27,-6.27,0,*5E
1508770998.83,55335,10.88,72808.0,-4.97,-6.31,-6.27,0,*58
1508771000.08,55336,10.88,72814.8,-4.97,-6.31,-6.27,0,*5B
1508771001.32,55337,10.88,72804.8,-5.01,-6.23,-6.19,0,*5A
1508771002.54,55338,10.88,72806.0,-5.01,-6.31,-6.23,0,*5F
1508771003.75,55339,10.88,72806.0,-5.01,-6.31,-6.23,0,*5E
1508771004.99,55340,10.88,72806.0,-5.01,-6.23,-6.23,0,*53
1508771006.19,55341,10.88,72804.8,-5.01,-6.31,-6.31,0,*52
1508771007.44,55342,10.88,72802.8,-5.01,-6.19,-6.19,0,*51
1508771008.72,55343,10.88,72800.8,-4.97,-6.19,-6.19,0,*5E
1508771009.96,55344,10.88,72806.3,-5.03,-6.35,-6.23,0,*52
1508771011.16,55345,10.88,72800.3,-5.01,-6.35,-6.31,0,*52
1508771012.36,55346,10.88,72802.0,-5.01,-6.31,-6.31,0,*55
1508771013.6,55347,10.88,72806.8,-5.01,-6.23,-6.23,0,*54
1508771014.82,55348,10.88,72804.3,-5.01,-6.19,-6.09,0,*5A
1508771016.04,55349,10.88,72802.5,-4.97,-6.13,-6.13,0,*54
1508771017.29,55350,10.88,72800.0,-5.01,-6.19,-6.19,0,*52
1508771018.51,55351,10.88,72800.5,-5.01,-6.35,-6.23,0,*54
1508771019.71,55352,10.88,72798.0,-5.01,-6.35,-6.31,0,*54
1508771020.91,55353,10.88,72800.3,-5.01,-6.43,-6.35,0,*50
1508771022.1,55354,10.88,72806.8,-5.01,-6.31,-6.31,0,*56
1508771023.32,55355,10.88,72808.0,-5.01,-6.31,-6.23,0,*54
1508771024.52,55356,10.88,72808.5,-5.01,-6.31,-6.31,0,*54
1508771025.76,55357,10.88,72810.5,-5.01,-6.19,-6.23,0,*5C
1508771027.0,55358,10.88,72808.3,-5.01,-6.23,-6.19,0,*53
1508771028.23,55359,10.88,72814.3,-5.03,-6.31,-6.35,0,*5D
1508771029.47,55360,10.88,72810.0,-5.01,-6.23,-6.19,0,*58
1508771030.72,55361,10.88,72812.8,-5.01,-6.23,-6.19,0,*59
1508771031.94,55362,10.88,72814.0,-4.97,-6.13,-6.13,0,*5D
1508771033.19,55363,10.88,72812.8,-4.97,-6.19,-6.13,0,*56
1508771034.44,55364,10.88,72808.3,-5.03,-6.31,-6.19,0,*5D
1508771035.68,55365,10.88,72812.3,-5.01,-6.23,-6.19,0,*5D
1508771036.92,55366,10.81,72812.8,-5.01,-6.23,-6.19,0,*5E
1508771038.12,55367,10.88,72810.0,-5.01,-6.31,-6.31,0,*56
1508771039.4,55368,10.88,72808.0,-4.97,-6.19,-6.27,0,*5A
1508771040.68,55369,10.88,72816.8,-4.97,-6.19,-6.19,0,*56
1508771041.92,55370,10.88,72818.3,-5.01,-6.23,-6.19,0,*59
1508771043.16,55371,10.88,72816.3,-5.01,-6.23,-6.23,0,*51
1508771044.43,55372,10.88,72824.8,-4.97,-6.27,-6.19,0,*51
1508771045.67,55373,10.88,72816.0,-5.01,-6.23,-6.23,0,*53
1508771046.91,55374,10.88,72816.0,-5.01,-6.23,-6.23,0,*54
1508771048.13,55375,10.88,72818.0,-4.97,-6.13,-6.13,0,*5B
1508771049.35,55376,10.88,72818.3,-4.97,-6.05,-6.05,0,*58
1508771050.54,55377,10.88,72810.0,-5.01,-6.09,-6.09,0,*57
1508771051.74,55378,10.88,72812.5,-5.01,-6.09,-6.09,0,*58
1508771052.95,55379,10.88,72810.3,-4.97,-6.05,-6.13,0,*50
1508771054.17,55380,10.88,72810.5,-4.97,-6.05,-6.13,0,*56
1508771055.37,55381,10.88,72810.8,-5.01,-6.09,-5.97,0,*5A
1508771056.59,55382,10.88,72810.0,-5.01,-6.19,-6.09,0,*5C
1508771057.8,55383,10.88,72810.8,-4.97,-6.05,-6.01,0,*56
1508771059.05,55384,10.88,72808.8,-5.01,-6.23,-6.19,0,*52
1508771060.27,55385,10.88,72810.3,-4.97,-6.05,-6.05,0,*54
1508771061.49,55386,10.88,72810.0,-4.97,-6.13,-6.13,0,*57
1508771062.71,55387,10.88,72810.8,-4.97,-6.13,-6.05,0,*51
1508771063.93,55388,10.88,72800.5,-4.97,-6.13,-6.13,0,*59
1508771065.15,55389,10.88,72804.0,-4.97,-6.13,-6.13,0,*58
1508771066.38,55390,10.88,72810.5,-4.97,-6.13,-6.13,0,*50
1508771067.66,55391,10.88,72808.0,-4.97,-6.19,-6.19,0,*51
1508771068.92,55392,10.88,72804.5,-4.97,-6.27,-6.27,0,*52
1508771070.17,55393,10.88,72804.0,-4.97,-6.19,-6.13,0,*59
1508771071.4,55394,10.88,72806.3,-4.97,-6.13,-6.13,0,*54
1508771072.62,55395,10.81,72804.5,-4.97,-6.13,-6.13,0,*55
1508771073.86,55396,10.88,72806.3,-4.97,-6.27,-6.05,0,*56
1508771075.11,55397,10.88,72806.3,-4.97,-6.19,-6.13,0,*5D
1508771076.38,55398,10.88,72804.3,-4.97,-6.27,-6.19,0,*55
1508771077.66,55399,10.88,72806.3,-4.97,-6.19,-6.19,0,*59
1508771078.86,55400,10.88,72804.3,-5.01,-6.31,-6.31,0,*50
1508771080.09,55401,10.88,72796.3,-4.97,-6.31,-6.31,0,*5F
1508771081.3,55402,10.88,72806.8,-5.01,-6.31,-6.23,0,*51
1508771082.52,55403,10.88,72798.8,-5.01,-6.31,-6.23,0,*50
1508771083.76,55404,10.81,72794.0,-5.01,-6.23,-6.23,0,*54
1508771084.97,55405,10.88,72806.5,-5.01,-6.31,-6.23,0,*56
1508771086.25,55406,10.88,72810.0,-4.97,-6.19,-6.19,0,*58
1508771087.45,55407,10.88,72796.5,-5.01,-6.31,-6.31,0,*57
1508771088.65,55408,10.88,72800.3,-5.01,-6.43,-6.35,0,*59
1508771089.84,55409,10.88,72806.3,-5.01,-6.43,-6.43,0,*59
1508771091.09,55410,10.88,72804.0,-5.03,-6.35,-6.23,0,*54
1508771092.28,55411,10.88,72804.8,-5.01,-6.31,-6.35,0,*54
1508771093.49,55412,10.81,72798.3,-5.01,-6.35,-6.31,0,*57
1508771094.7,55413,10.88,72806.5,-5.01,-6.31,-6.23,0,*51
1508771095.92,55414,10.88,72806.0,-5.01,-6.31,-6.23,0,*56
1508771097.16,55415,10.88,72808.5,-5.01,-6.23,-6.19,0,*5D
1508771098.38,55416,10.88,72806.0,-5.01,-6.31,-6.19,0,*5D
1508771099.6,55417,10.88,72808.3,-5.01,-6.31,-6.23,0,*55
1508771100.83,55418,10.81,72806.5,-4.97,-6.31,-6.31,0,*57
1508771102.03,55419,10.88,72800.5,-5.01,-6.43,-6.35,0,*59
1508771103.22,55420,10.88,72800.5,-5.01,-6.47,-6.43,0,*56
1508771104.44,55421,10.81,72804.3,-5.03,-6.35,-6.43,0,*50
1508771105.66,55422,10.88,72808.3,-5.01,-6.31,-6.23,0,*53
1508771106.86,55423,10.88,72812.5,-5.01,-6.35,-6.31,0,*55
1508771108.06,55424,10.88,72808.3,-5.01,-6.35,-6.31,0,*52
1508771109.26,55425,10.88,72810.8,-5.01,-6.35,-6.31,0,*53
1508771110.46,55426,10.88,72808.5,-5.01,-6.31,-6.35,0,*50
1508771111.68,55427,10.88,72804.8,-5.01,-6.31,-6.23,0,*56
1508771112.89,55428,10.88,72810.0,-5.01,-6.31,-6.23,0,*59
1508771114.09,55429,10.88,72810.0,-5.01,-6.31,-6.31,0,*5B
1508771115.34,55430,10.88,72808.8,-5.01,-6.23,-6.19,0,*5A
1508771116.55,55431,10.81,72802.0,-5.01,-6.31,-6.23,0,*51
1508771117.79,55432,10.88,72810.5,-5.01,-6.23,-6.23,0,*51
1508771119.04,55433,10.88,72810.8,-4.97,-6.19,-6.13,0,*54
1508771120.25,55434,10.88,72808.5,-5.01,-6.31,-6.23,0,*54
1508771121.45,55435,10.88,72814.5,-5.01,-6.31,-6.31,0,*56
1508771122.7,55436,10.88,72808.0,-5.03,-6.23,-6.31,0,*54
1508771123.9,55437,10.88,72804.3,-5.01,-6.31,-6.35,0,*50
1508771125.1,55438,10.88,72814.5,-5.01,-6.35,-6.35,0,*5B
1508771126.31,55439,10.81,72814.8,-5.01,-6.31,-6.23,0,*59
1508771127.51,55440,10.88,72808.5,-5.01,-6.43,-6.43,0,*54
1508771128.73,55441,10.88,72814.3,-5.03,-6.35,-6.31,0,*53
1508771129.94,55442,10.88,72816.8,-5.01,-6.35,-6.31,0,*52
1508771131.17,55443,10.88,72814.8,-5.01,-6.23,-6.23,0,*57
1508771132.44,55444,10.88,72816.3,-5.03,-6.23,-6.23,0,*52
1508771133.66,55445,10.88,72818.8,-5.01,-6.23,-6.31,0,*52
1508771134.9,55446,10.88,72822.3,-5.01,-6.23,-6.23,0,*52
1508771136.14,55447,10.81,72818.0,-5.01,-6.19,-6.23,0,*5A
1508771137.36,55448,10.88,72822.8,-5.01,-6.35,-6.23,0,*5B
1508771138.56,55449,10.88,72818.3,-5.01,-6.35,-6.31,0,*59
1508771139.76,55450,10.81,72812.0,-5.01,-6.43,-6.43,0,*55
1508771140.95,55451,10.88,72818.8,-5.01,-6.31,-6.35,0,*50
1508771142.19,55452,10.88,72820.8,-5.03,-6.31,-6.23,0,*56
1508771143.43,55453,10.81,72812.3,-5.01,-6.23,-6.23,0,*56
1508771144.68,55454,10.88,72818.5,-5.01,-6.19,-6.19,0,*51
1508771145.93,55455,10.81,72816.5,-5.01,-6.19,-6.19,0,*50
1508771147.14,55456,10.88,72816.3,-5.01,-6.31,-6.23,0,*50
1508771148.37,55457,10.88,72816.8,-5.03,-6.31,-6.35,0,*54
1508771149.61,55458,10.81,72812.5,-5.01,-6.23,-6.19,0,*54
1508771150.83,55459,10.88,72808.5,-5.03,-6.43,-6.35,0,*5F
1508771152.1,55460,10.81,72812.0,-5.03,-6.23,-6.23,0,*54
1508771153.37,55461,10.81,72816.5,-4.97,-6.27,-6.19,0,*54
1508771154.63,55462,10.88,72820.0,-5.03,-6.23,-6.23,0,*56
1508771155.83,55463,10.88,72812.5,-5.01,-6.31,-6.31,0,*55
1508771157.07,55464,10.81,72814.8,-5.01,-6.23,-6.23,0,*52
1508771158.27,55465,10.88,72810.5,-5.01,-6.31,-6.31,0,*53
1508771159.47,55466,10.88,72812.3,-5.01,-6.31,-6.31,0,*50
1508771160.68,55467,10.88,72808.0,-5.01,-6.31,-6.23,0,*52
1508771161.93,55468,10.88,72814.0,-5.01,-6.23,-6.19,0,*57
1508771163.15,55469,10.88,72820.3,-5.01,-6.31,-6.19,0,*55
1508771164.39,55470,10.88,72814.0,-5.01,-6.23,-6.23,0,*57
1508771165.61,55471,10.88,72818.3,-5.03,-6.31,-6.09,0,*5F
1508771166.85,55472,10.81,72814.8,-5.03,-6.31,-6.19,0,*5D
1508771168.05,55473,10.88,72812.0,-5.01,-6.31,-6.31,0,*54
1508771169.28,55474,10.81,72814.3,-5.03,-6.35,-6.35,0,*51
1508771170.55,55475,10.88,72820.3,-5.03,-6.19,-6.23,0,*59
1508771171.79,55476,10.81,72820.0,-5.01,-6.19,-6.19,0,*51
1508771172.99,55477,10.88,72818.8,-5.01,-6.31,-6.31,0,*50
1508771174.24,55478,10.88,72814.5,-5.01,-6.23,-6.19,0,*56
1508771175.46,55479,10.88,72812.5,-5.03,-6.31,-6.31,0,*5C
1508771176.68,55480,10.81,72818.0,-5.01,-6.31,-6.23,0,*5B
1508771177.92,55481,10.81,72808.0,-5.03,-6.31,-6.23,0,*58
1508771179.14,55482,10.88,72812.5,-5.01,-6.35,-6.23,0,*5D
1508771180.4,55483,10.88,72818.5,-5.03,-6.23,-6.23,0,*59
1508771181.62,55484,10.88,72812.3,-5.03,-6.43,-6.35,0,*5F
1508771182.85,55485,10.88,72818.3,-5.03,-6.35,-6.31,0,*5B
1508771184.09,55486,10.88,72818.8,-5.03,-6.31,-6.23,0,*5F
1508771185.29,55487,10.88,72816.8,-5.01,-6.35,-6.31,0,*5B
1508771186.53,55488,10.88,72824.0,-5.01,-6.23,-6.23,0,*50
1508771187.81,55489,10.88,72818.0,-5.03,-6.19,-6.19,0,*53
1508771189.01,55490,10.81,72814.5,-5.01,-6.31,-6.31,0,*59
1508771190.27,55491,10.88,72820.5,-5.03,-6.23,-6.23,0,*5A
1508771191.51,55492,10.88,72812.3,-5.03,-6.31,-6.23,0,*5A
1508771192.75,55493,10.81,72810.8,-5.01,-6.23,-6.23,0,*5A
1508771193.97,55494,10.88,72816.8,-5.03,-6.31,-6.31,0,*5F
1508771195.24,55495,10.81,72814.8,-5.03,-6.23,-6.19,0,*57
1508771196.44,55496,10.88,72814.8,-5.01,-6.09,-6.09,0,*5F
1508771197.69,55497,10.88,72818.0,-5.01,-6.19,-6.19,0,*5E
1508771198.91,55498,10.88,72822.0,-5.01,-6.31,-6.19,0,*5B
1508771200.15,55499,10.88,72816.3,-5.01,-6.23,-6.23,0,*50
1508771201.42,55500,10.88,72816.5,-5.03,-6.23,-6.19,0,*5A
1508771202.63,55501,10.81,72814.0,-5.01,-6.23,-6.09,0,*58
1508771203.9,55502,10.81,72804.8,-5.03,-6.23,-6.19,0,*58
1508771205.15,55503,10.81,72804.8,-5.01,-6.23,-6.19,0,*5B
1508771206.36,55504,10.88,72818.0,-5.03,-6.09,-6.09,0,*57
1508771207.58,55505,10.88,72812.3,-5.01,-6.23,-6.09,0,*5C
1508771208.79,55506,10.88,72816.5,-5.01,-6.31,-6.23,0,*54
1508771210.02,55507,10.88,72812.8,-4.97,-6.13,-6.09,0,*53
1508771211.26,55508,10.88,72818.3,-5.03,-6.23,-6.09,0,*53
1508771212.48,55509,10.81,72808.0,-5.01,-6.09,-6.19,0,*59
1508771213.72,55510,10.88,72816.8,-5.01,-6.23,-6.19,0,*59
1508771214.97,55511,10.81,72812.0,-5.03,-6.19,-6.09,0,*52
1508771216.21,55512,10.88,72818.0,-5.01,-6.19,-6.23,0,*5B
1508771217.43,55513,10.88,72812.3,-5.01,-6.19,-6.09,0,*52
1508771218.67,55514,10.88,72810.5,-5.01,-6.23,-6.23,0,*54
1508771219.91,55515,10.88,72814.3,-5.03,-6.19,-6.09,0,*56
1508771221.13,55516,10.81,72814.3,-5.01,-6.19,-6.09,0,*57
1508771222.39,55517,10.88,72810.0,-5.03,-6.23,-6.23,0,*55
1508771223.63,55518,10.88,72816.5,-5.03,-6.31,-6.23,0,*59
1508771224.83,55519,10.88,72818.5,-5.01,-6.09,-6.09,0,*59
1508771226.05,55520,10.88,72814.5,-4.97,-6.13,-6.05,0,*5A
1508771227.31,55521,10.81,72812.8,-5.03,-6.23,-6.23,0,*50
1508771228.58,55522,10.81,72814.5,-5.03,-6.23,-6.23,0,*53
1508771229.79,55523,10.81,72818.0,-5.01,-6.31,-6.23,0,*53
1508771231.01,55524,10.88,72814.8,-5.01,-6.23,-6.09,0,*5F
1508771232.22,55525,10.88,72814.5,-5.01,-6.19,-6.09,0,*57
1508771233.47,55526,10.88,72820.0,-5.03,-6.31,-6.23,0,*54
1508771234.73,55527,10.88,72822.5,-5.03,-6.19,-6.23,0,*5F
1508771235.95,55528,10.88,72818.3,-4.97,-6.13,-6.05,0,*52
1508771237.17,55529,10.88,72826.8,-5.03,-6.09,-6.05,0,*54
1508771238.36,55530,10.81,72824.5,-5.01,-6.05,-6.05,0,*52
1508771239.6,55531,10.81,72824.3,-5.03,-6.23,-6.09,0,*59
1508771240.79,55532,10.88,72832.3,-5.01,-6.09,-6.09,0,*50
1508771242.01,55533,10.88,72826.8,-5.01,-6.19,-5.97,0,*54
1508771243.29,55534,10.81,72824.0,-5.03,-6.19,-6.19,0,*54
1508771244.53,55535,10.88,72826.5,-5.01,-6.19,-6.23,0,*5E
1508771245.75,55536,10.88,72828.3,-5.03,-6.31,-6.31,0,*56
1508771246.95,55537,10.81,72826.3,-5.01,-6.35,-6.31,0,*51
1508771248.18,55538,10.81,72830.8,-5.01,-6.19,-6.31,0,*50
1508771249.45,55539,10.88,72832.3,-5.03,-6.23,-6.19,0,*50
1508771250.72,55540,10.81,72824.5,-5.03,-6.19,-6.19,0,*57
1508771251.97,55541,10.88,72824.5,-5.03,-6.31,-6.23,0,*55
1508771253.2,55542,10.88,72828.8,-5.01,-6.23,-6.23,0,*57
1508771254.45,55543,10.81,72824.8,-5.03,-6.09,-6.23,0,*5C
1508771255.7,55544,10.81,72826.8,-5.01,-6.19,-6.19,0,*51
1508771256.94,55545,10.88,72830.5,-5.03,-6.19,-6.09,0,*53
1508771258.19,55546,10.88,72826.3,-5.01,-6.19,-6.19,0,*53
1508771259.45,55547,10.88,72830.8,-5.03,-6.23,-6.23,0,*50
1508771260.72,55548,10.81,72822.0,-5.03,-6.23,-6.19,0,*56
1508771261.97,55549,10.81,72824.0,-5.01,-6.19,-6.19,0,*5C
1508771263.18,55550,10.81,72820.3,-5.01,-6.23,-6.09,0,*5C
1508771264.46,55551,10.81,72820.0,-5.03,-6.23,-6.19,0,*5E
1508771265.69,55552,10.88,72820.3,-5.03,-6.23,-6.09,0,*5C
1508771266.94,55553,10.88,72824.0,-5.01,-6.19,-6.19,0,*57
1508771268.16,55554,10.88,72822.3,-5.03,-6.09,-6.09,0,*52
1508771269.38,55555,10.88,72818.5,-5.05,-6.23,-6.13,0,*56
1508771270.63,55556,10.81,72818.5,-5.03,-6.09,-6.19,0,*51
1508771271.91,55557,10.81,72824.5,-5.03,-6.19,-6.19,0,*51
1508771273.15,55558,10.81,72820.0,-5.03,-6.19,-6.01,0,*57
1508771274.4,55559,10.81,72818.5,-5.01,-6.19,-6.19,0,*5D
1508771275.64,55560,10.88,72820.0,-5.03,-6.19,-6.09,0,*54
1508771276.92,55561,10.88,72816.5,-5.03,-6.19,-6.19,0,*54
1508771278.19,55562,10.88,72814.5,-5.03,-6.23,-6.19,0,*5E
1508771279.44,55563,10.88,72816.8,-5.03,-6.23,-6.31,0,*55
1508771280.65,55564,10.81,72816.3,-5.01,-6.19,-6.09,0,*52
1508771281.93,55565,10.81,72812.5,-5.03,-6.19,-6.19,0,*50
1508771283.18,55566,10.88,72818.0,-5.03,-6.09,-6.19,0,*52
1508771284.43,55567,10.81,72814.0,-5.01,-6.19,-6.19,0,*50
1508771285.67,55568,10.81,72816.3,-5.03,-6.19,-6.09,0,*5C
1508771286.91,55569,10.88,72814.0,-5.03,-6.19,-6.09,0,*5D
1508771288.16,55570,10.88,72818.5,-5.01,-6.19,-6.19,0,*56
1508771289.4,55571,10.81,72812.5,-5.01,-6.23,-6.23,0,*57
1508771290.65,55572,10.81,72810.8,-5.03,-6.31,-6.19,0,*5C
1508771291.86,55573,10.81,72806.0,-5.01,-6.23,-6.09,0,*5D
1508771293.1,55574,10.81,72806.5,-5.01,-6.23,-6.23,0,*52
1508771294.34,55575,10.81,72808.3,-5.03,-6.31,-6.23,0,*52
1508771295.54,55576,10.88,72814.8,-5.01,-6.35,-6.31,0,*54
1508771296.79,55577,10.88,72808.0,-5.03,-6.19,-6.09,0,*52
1508771298.03,55578,10.88,72806.3,-5.01,-6.23,-6.23,0,*5E
1508771299.26,55579,10.81,72806.8,-5.01,-6.23,-6.23,0,*5F
1508771300.5,55580,10.88,72804.3,-5.03,-6.31,-6.23,0,*58
1508771301.78,55581,10.81,72812.0,-5.03,-6.19,-6.19,0,*5A
1508771303.02,55582,10.81,72808.5,-5.01,-6.23,-6.23,0,*5B
1508771304.29,55583,10.88,72810.8,-5.03,-6.23,-6.19,0,*51
1508771305.53,55584,10.88,72810.8,-5.01,-6.23,-6.23,0,*5D
1508771306.77,55585,10.81,72806.8,-5.01,-6.19,-6.23,0,*55
1508771308.01,55586,10.81,72806.5,-5.01,-6.23,-6.19,0,*56
1508771309.27,55587,10.88,72808.3,-5.03,-6.23,-6.23,0,*5C